STARLINK-6083 (56109 NORAD) Tracking and Keplerian Element Data

This shows tracking and keplerian element data for the satellite.

Feedback or suggestion? Click here.




ElementValue
Catalog56109
NameSTARLINK-6083
Epoch Orbit652
Epoch Day127.25001157
Epoch Year2023
RAAN37.7204
Inclination43.0015
Eccentricity0.0001448
Argument of Perigee272.3417
Mean Anonmoly143.1319
Mean Motion15.30129942
Decay Rate-0.00899803
L11 56109U 23046S 23127.25001157 -.00899803 00000+0 -32956-1 0 9996
L22 56109 43.0015 37.7204 0001448 272.3417 143.1319 15.30129942 6523



Live tracking and technical data element details for STARLINK-6083 (NORAD 56109). STARLINK-6083 can be tracked NOW for your location showing map with azimuth and elevation plus other details from your city location.







IsCatalogInMostPopularTable: catalog: 56109, numindb: -1

Insert: records affected: 1


GetName: 56109 STARLINK-6083

Hit Count: inserted at: Sat, 03 Jun 2023 17:17:58 GMT